Weather in Plunge

Lithuania     55˚54′37″N   21˚50′47″E
temp.,
°C
wind,
m/s
gust,
m/s
humid.,
%
clouds,
%
prec.,
mm/h
press.,
hPa
HPBL,
m
28 november, sat
sat2823:00+1˚n498684 0.0 1017549
02:00n499246 0.1 1019499
05:00+1˚nne599444 0.1 1020557
08:00+1˚nne398969 0.1 1022657
11:00+3˚nne598499 0.1 1022808
14:00+2˚nne588397 0.1 1022739
17:00+2˚nne489198 0.1 1022688
20:00+2˚ne589697 0.3 1023519
29 november, sun
sun2923:00ne389285 0.1 1024394
02:00ne389377 0.1 1024339
05:00ene478672 0.0 1024636
08:00ene368484 0.0 1024361
11:00ene47857 0.0 1025405
14:00ene358527 0.0 1024442
17:00ne358495 0.0 1023546
20:00n138596 0.1 1023260
30 november, mon
mon3023:00nw2591100 0.1 1022305
02:00−1˚n2394100 0.3 1022229
05:00−1˚nnw129789 0.1 102189
08:00−1˚w119688 0.1 102139
11:00sw238990 0.1 1021242
14:00+1˚sw358294 0.1 1020401
17:00s369499 0.0 1020213
20:00−1˚s479879 0.0 1020203
1 december, tue
tue123:00+1˚ssw369899 0.1 1019255
02:00+2˚ssw4109399 0.3 1019578
05:00+2˚ssw5109799 0.8 1019486
08:00+1˚s61097100 1.0 1021434
11:00+1˚s61087100 0.4 1022470
14:00+1˚s588588 0.4 1023525
17:00−1˚s379195 0.0 1024276
20:00−1˚s378897 0.0 1026281
2 december, wed
wed223:00−1˚sse4889100 0.0 1027303
02:00−1˚sse489099 0.0 1027312
05:00−2˚sse3689100 0.0 1027262
08:00−2˚sse3686100 0.0 1027285
11:00−1˚sse4780100 0.0 1028320
14:00−1˚se4776100 0.0 1027372
17:00−2˚se488472 0.0 1026322
20:00−3˚se498439 0.0 1026357